KB2SKP Weather Reports


Display with metric or nautical units.
time (UTC)temp
F
wind
direction
speed
MPH
gust
MPH
rain 1hr
in
rain 24hr
in
rain mn
in
humidity
%
barometer
mb
20260906102822 64 336 0.0 1.0 0.00 0.00 0.00 99 1009.3
20260906102321 64 359 1.0 2.0 0.00 0.00 0.00 99 1009.4
20260906101817 64 335 0.0 1.0 0.00 0.00 0.00 99 1009.1
20260906101719 64 339 0.0 1.0 0.00 0.00 0.00 99 1009.2
20260906101312 64 339 0.0 1.0 0.00 0.00 0.00 99 1009.2
20260906101219 64 311 1.0 2.0 0.00 0.00 0.00 99 1008.9
20260906100808 64 311 1.0 2.0 0.00 0.00 0.00 99 1008.9
20260906100306 64 222 0.0 0.0 0.00 0.00 0.00 99 1009.0
20260906100213 64 17 0.0 0.0 0.00 0.00 0.00 99 1009.0
20260906095802 64 17 0.0 0.0 0.00 0.00 0.00 99 1009.0
20260906095257 64 285 0.0 1.0 0.00 0.00 0.00 99 1008.7
20260906095202 64 217 0.0 1.0 0.00 0.00 0.00 99 1008.7
20260906094756 64 217 0.0 1.0 0.00 0.00 0.00 99 1008.7
20260906094656 64 320 0.0 1.0 0.00 0.00 0.00 99 1008.9
20260906094251 64 320 0.0 1.0 0.00 0.00 0.00 99 1008.9
20260906094156 64 346 0.0 1.0 0.00 0.00 0.00 98 1008.8
20260906093748 64 346 0.0 1.0 0.00 0.00 0.00 98 1008.8
20260906093243 64 44 0.0 0.0 0.00 0.00 0.00 98 1008.6
20260906092738 64 103 0.0 1.0 0.00 0.00 0.00 98 1008.7
20260906092238 64 37 0.0 1.0 0.00 0.00 0.00 98 1008.6
20260906091734 64 315 0.0 1.0 0.00 0.00 0.00 98 1008.8
20260906091230 64 301 0.0 1.0 0.00 0.00 0.00 98 1008.5
20260906090726 64 326 0.0 1.0 0.00 0.00 0.00 98 1008.5
20260906090225 64 293 0.0 2.0 0.00 0.00 0.00 98 1008.5
20260906085724 64 248 0.0 1.0 0.00 0.00 0.00 98 1008.3
20260906085634 64 299 0.0 1.0 0.00 0.00 0.00 98 1008.3
20260906085223 64 299 0.0 1.0 0.00 0.00 0.00 98 1008.3
20260906085128 64 269 0.0 1.0 0.00 0.00 0.00 98 1008.2
20260906084718 64 269 0.0 1.0 0.00 0.00 0.00 98 1008.2
20260906084212 65 202 0.0 1.0 0.00 0.00 0.00 98 1008.3
20260906084118 65 130 0.0 1.0 0.00 0.00 0.00 98 1008.3
20260906083708 65 130 0.0 1.0 0.00 0.00 0.00 98 1008.3
20260906083158 65 301 0.0 1.0 0.00 0.00 0.00 98 1008.0
20260906083101 65 269 0.0 1.0 0.00 0.00 0.00 98 1008.2
20260906082652 65 269 0.0 1.0 0.00 0.00 0.00 98 1008.2
20260906082148 65 315 0.0 3.0 0.00 0.00 0.00 98 1008.0
20260906081643 65 284 1.0 2.0 0.00 0.00 0.00 98 1008.0
20260906081138 65 230 0.0 1.0 0.00 0.00 0.00 98 1008.1
20260906080635 65 7 0.0 0.0 0.00 0.00 0.00 98 1008.1
20260906080534 65 217 0.0 1.0 0.00 0.00 0.00 98 1008.3
20260906080131 65 217 0.0 1.0 0.00 0.00 0.00 98 1008.3
20260906075630 65 313 0.0 2.0 0.00 0.00 0.00 98 1008.4
20260906075125 65 315 2.0 2.0 0.00 0.00 0.00 98 1008.3
20260906074621 65 242 0.0 1.0 0.00 0.00 0.00 98 1008.1
20260906074119 65 44 0.0 0.0 0.00 0.00 0.00 98 1007.9
20260906073614 65 224 0.0 2.0 0.00 0.00 0.00 98 1008.1
20260906073521 66 212 0.0 2.0 0.00 0.00 0.00 98 1008.3
20260906073110 66 212 0.0 2.0 0.00 0.00 0.00 98 1008.3
20260906073016 66 304 0.0 2.0 0.00 0.00 0.00 98 1008.3
20260906072604 66 304 0.0 2.0 0.00 0.00 0.00 98 1008.3
20260906072510 66 309 3.0 3.0 0.00 0.00 0.00 98 1008.0
20260906072101 66 309 3.0 3.0 0.00 0.00 0.00 98 1008.0
20260906071557 66 310 0.0 1.0 0.00 0.00 0.00 98 1007.9
20260906071051 66 334 0.0 2.0 0.00 0.00 0.00 98 1008.0
20260906071000 66 326 0.0 1.0 0.00 0.00 0.00 98 1008.0
20260906070548 66 326 0.0 1.0 0.00 0.00 0.00 98 1008.0
20260906070043 66 256 0.0 1.0 0.00 0.00 0.00 98 1007.9
20260906065952 66 325 0.0 2.0 0.00 0.00 0.00 98 1007.9
20260906065543 66 325 0.0 2.0 0.00 0.00 0.00 98 1007.9
20260906065039 66 39 0.0 2.0 0.00 0.00 0.00 98 1007.9
20260906064534 66 37 0.0 1.0 0.00 0.00 0.00 98 1008.1
20260906064029 66 298 0.0 2.0 0.00 0.00 0.00 98 1008.1
20260906063935 66 348 0.0 1.0 0.00 0.00 0.00 98 1008.0
20260906063524 66 348 0.0 1.0 0.00 0.00 0.00 98 1008.0
20260906063430 66 205 0.0 2.0 0.00 0.00 0.00 98 1008.0
20260906063020 66 205 0.0 2.0 0.00 0.00 0.00 98 1008.0
20260906062515 67 280 2.0 3.0 0.00 0.00 0.00 98 1008.0
20260906062010 67 325 0.0 2.0 0.00 0.00 0.00 98 1007.8
20260906061506 67 290 0.0 1.0 0.00 0.00 0.00 98 1008.1
20260906061408 67 329 0.0 1.0 0.00 0.00 0.00 98 1008.2
20260906061000 67 329 0.0 1.0 0.00 0.00 0.00 98 1008.2
20260906060908 67 261 0.0 2.0 0.00 0.00 0.00 98 1008.2
20260906060456 67 261 0.0 2.0 0.00 0.00 0.00 98 1008.2
20260906055953 67 333 0.0 2.0 0.00 0.00 0.00 98 1008.3
20260906055857 67 319 0.0 2.0 0.00 0.00 0.00 98 1007.9
20260906055448 67 319 0.0 2.0 0.00 0.00 0.00 98 1007.9
20260906054943 67 330 0.0 2.0 0.00 0.00 0.00 98 1008.1
20260906054438 68 27 0.0 2.0 0.00 0.00 0.00 98 1008.3
20260906053934 67 294 0.0 2.0 0.00 0.00 0.00 98 1008.2
20260906053430 68 272 0.0 2.0 0.00 0.00 0.00 98 1008.2
20260906052925 68 313 0.0 2.0 0.00 0.00 0.00 98 1008.3
20260906052421 68 321 0.0 1.0 0.00 0.00 0.00 98 1008.0
20260906051918 68 357 0.0 2.0 0.00 0.00 0.00 98 1008.3
20260906051818 68 220 0.0 3.0 0.00 0.00 0.00 98 1008.6
20260906051413 68 220 0.0 3.0 0.00 0.00 0.00 98 1008.6
20260906050908 68 37 0.0 1.0 0.00 0.00 0.00 97 1008.5
20260906050403 68 279 0.0 1.0 0.00 0.00 0.00 97 1008.7
20260906050312 68 298 0.0 1.0 0.00 0.00 0.00 97 1008.6
20260906045902 68 298 0.0 1.0 0.00 0.00 0.00 97 1008.6
20260906045811 68 283 0.0 2.0 0.00 0.00 0.00 97 1008.6
20260906045400 68 283 0.0 2.0 0.00 0.00 0.00 97 1008.6
20260906044857 68 324 1.0 2.0 0.00 0.00 0.00 97 1008.5
20260906044351 68 49 0.0 2.0 0.00 0.00 0.00 97 1008.5
20260906043847 68 348 0.0 2.0 0.00 0.00 0.00 97 1008.4
20260906043754 68 319 1.0 1.0 0.00 0.00 0.00 97 1008.4
20260906043343 68 319 1.0 1.0 0.00 0.00 0.00 97 1008.4
20260906042838 68 269 0.0 1.0 0.00 0.00 0.00 97 1008.6
20260906042748 68 335 0.0 1.0 0.00 0.00 0.00 97 1008.6
20260906042337 68 335 0.0 1.0 0.00 0.00 0.00 97 1008.6
20260906041832 69 291 0.0 2.0 0.00 0.00 0.00 97 1008.5
20260906041737 68 241 0.0 2.0 0.00 0.00 0.00 97 1008.6
20260906041328 68 241 0.0 2.0 0.00 0.00 0.00 97 1008.6
20260906040828 69 251 0.0 2.0 0.00 0.00 0.00 97 1008.6
20260906040323 69 4 0.0 2.0 0.00 0.00 0.00 96 1008.5
20260906040225 69 331 0.0 3.0 0.00 0.00 0.00 96 1008.5
20260906035819 69 331 0.0 3.0 0.00 0.00 0.00 96 1008.5
20260906035314 69 261 2.0 4.0 0.00 0.00 0.00 97 1008.6
20260906034809 69 342 0.0 2.0 0.00 0.00 0.00 97 1008.4
20260906034719 69 292 1.0 2.0 0.00 0.00 0.00 97 1008.6
20260906034309 69 292 1.0 2.0 0.00 0.00 0.00 97 1008.6
20260906033805 69 246 0.0 2.0 0.00 0.00 0.00 97 1008.7
20260906033304 69 217 0.0 3.0 0.00 0.00 0.00 97 1008.6
20260906033212 69 57 0.0 2.0 0.00 0.00 0.00 96 1008.4
20260906032801 69 57 0.0 2.0 0.00 0.00 0.00 96 1008.4
20260906032256 69 283 1.0 2.0 0.00 0.00 0.00 96 1008.7
20260906032201 69 264 0.0 2.0 0.00 0.00 0.00 96 1009.0
20260906031751 69 264 0.0 2.0 0.00 0.00 0.00 96 1009.0
20260906031248 70 295 0.0 3.0 0.00 0.00 0.00 96 1008.7
20260906030746 69 287 0.0 2.0 0.00 0.00 0.00 96 1008.6
20260906030242 70 257 0.0 2.0 0.00 0.00 0.00 96 1008.7
20260906025741 70 230 1.0 2.0 0.00 0.00 0.00 96 1008.6
20260906025236 70 27 0.0 2.0 0.00 0.00 0.00 96 1008.5
20260906025143 70 277 1.0 1.0 0.00 0.00 0.00 95 1008.6
20260906024735 70 277 1.0 1.0 0.00 0.00 0.00 95 1008.6
20260906024234 70 183 0.0 1.0 0.00 0.00 0.00 95 1008.5
20260906023730 70 211 1.0 2.0 0.00 0.00 0.00 95 1008.7
20260906023225 71 219 1.0 3.0 0.00 0.00 0.00 95 1008.7
20260906022721 71 155 0.0 2.0 0.00 0.00 0.00 95 1008.7
20260906022216 71 201 1.0 1.0 0.00 0.00 0.00 95 1008.7
20260906021712 71 350 0.0 2.0 0.00 0.00 0.00 94 1008.7
20260906021620 71 6 0.0 1.0 0.00 0.00 0.00 94 1008.5
20260906021210 71 6 0.0 1.0 0.00 0.00 0.00 94 1008.5
20260906021114 71 338 0.0 2.0 0.00 0.00 0.00 94 1008.5
20260906020705 71 338 0.0 2.0 0.00 0.00 0.00 94 1008.5
20260906020159 72 213 0.0 2.0 0.00 0.00 0.00 94 1008.7
20260906015654 72 339 0.0 2.0 0.00 0.00 0.00 94 1008.7
20260906015607 72 315 0.0 3.0 0.00 0.00 0.00 94 1008.6
20260906015152 72 315 0.0 3.0 0.00 0.00 0.00 94 1008.6
20260906015057 72 241 0.0 2.0 0.00 0.00 0.00 93 1008.4
20260906014647 72 241 0.0 2.0 0.00 0.00 0.00 93 1008.4
20260906014143 72 290 1.0 2.0 0.00 0.00 0.00 93 1008.5
20260906014050 72 132 0.0 1.0 0.00 0.00 0.00 93 1008.3
20260906013639 72 132 0.0 1.0 0.00 0.00 0.00 93 1008.3
20260906013134 73 331 0.0 1.0 0.00 0.00 0.00 92 1008.2
20260906012634 73 231 0.0 2.0 0.00 0.00 0.00 92 1008.3
20260906012129 73 306 2.0 3.0 0.00 0.00 0.00 92 1008.1
20260906012036 72 180 0.0 2.0 0.00 0.00 0.00 93 1008.1
20260906011624 72 180 0.0 2.0 0.00 0.00 0.00 93 1008.1
20260906011528 72 267 0.0 2.0 0.00 0.00 0.00 93 1008.1
20260906011118 72 267 0.0 2.0 0.00 0.00 0.00 93 1008.1
20260906010614 73 258 1.0 3.0 0.00 0.00 0.00 92 1008.1
20260906010110 73 216 0.0 2.0 0.00 0.00 0.00 92 1008.0
20260906005604 73 261 1.0 3.0 0.00 0.00 0.00 90 1007.9
20260906005511 73 305 3.0 4.0 0.00 0.00 0.00 91 1007.7
20260906005103 73 305 3.0 4.0 0.00 0.00 0.00 91 1007.7
20260906004602 73 225 1.0 2.0 0.00 0.00 0.00 91 1007.4
20260906004057 73 312 0.0 2.0 0.00 0.00 0.00 91 1007.8
20260906003552 74 321 0.0 2.0 0.00 0.00 0.00 91 1007.5
20260906003459 73 304 0.0 2.0 0.00 0.00 0.00 89 1007.4
20260906003048 73 304 0.0 2.0 0.00 0.00 0.00 89 1007.4
20260906002954 73 289 1.0 1.0 0.00 0.00 0.00 90 1007.4
20260906002543 73 289 1.0 1.0 0.00 0.00 0.00 90 1007.4
20260906002438 73 319 1.0 3.0 0.00 0.00 0.00 92 1007.4
20260906002038 73 319 1.0 3.0 0.00 0.00 0.00 92 1007.4
20260906001938 73 319 2.0 2.0 0.00 0.00 0.00 92 1007.5
20260906001533 73 319 2.0 2.0 0.00 0.00 0.00 92 1007.5
20260906001437 73 297 0.0 2.0 0.00 0.00 0.00 91 1007.4
20260906001027 73 297 0.0 2.0 0.00 0.00 0.00 91 1007.4
20260906000932 74 290 0.0 2.0 0.00 0.00 0.00 91 1007.3
20260906000524 74 290 0.0 2.0 0.00 0.00 0.00 91 1007.3
20260906000018 74 262 1.0 2.0 0.00 0.00 0.00 90 1007.4
20260905235512 74 308 0.0 2.0 0.00 0.00 0.00 91 1007.6
20260905235416 74 212 0.0 1.0 0.00 0.00 0.00 90 1007.6
20260905235007 74 212 0.0 1.0 0.00 0.00 0.00 90 1007.6
20260905234910 75 261 0.0 2.0 0.00 0.00 0.00 90 1007.5
20260905234502 75 261 0.0 2.0 0.00 0.00 0.00 90 1007.5
20260905233956 74 276 1.0 2.0 0.00 0.00 0.00 91 1007.3
20260905233859 74 208 0.0 1.0 0.00 0.00 0.00 90 1007.4
20260905233452 74 208 0.0 1.0 0.00 0.00 0.00 90 1007.4
20260905232950 74 239 1.0 2.0 0.00 0.00 0.00 90 1007.3
20260905232858 75 249 0.0 2.0 0.00 0.00 0.00 90 1007.3
20260905232447 75 249 0.0 2.0 0.00 0.00 0.00 90 1007.3
20260905232353 75 243 0.0 1.0 0.00 0.00 0.00 89 1007.7
20260905231943 75 243 0.0 1.0 0.00 0.00 0.00 89 1007.7
20260905231438 75 242 0.0 1.0 0.00 0.00 0.00 87 1007.6
20260905231342 75 269 0.0 1.0 0.00 0.00 0.00 86 1007.5
20260905230935 75 269 0.0 1.0 0.00 0.00 0.00 86 1007.5
20260905230433 75 255 0.0 0.0 0.00 0.00 0.00 86 1007.3
20260905230336 75 190 0.0 1.0 0.00 0.00 0.00 86 1007.5
20260905225931 75 190 0.0 1.0 0.00 0.00 0.00 86 1007.5
20260905225427 75 237 0.0 2.0 0.00 0.00 0.00 86 1007.3
20260905225330 76 271 1.0 2.0 0.00 0.00 0.00 86 1007.2
20260905224921 76 271 1.0 2.0 0.00 0.00 0.00 86 1007.2
20260905224418 76 142 0.0 0.0 0.00 0.00 0.00 84 1007.2
20260905223917 77 164 0.0 1.0 0.00 0.00 0.00 83 1007.0
20260905223415 77 279 0.0 1.0 0.00 0.00 0.00 82 1007.2
20260905222915 77 50 0.0 0.0 0.00 0.00 0.00 80 1007.0
20260905222414 77 329 0.0 1.0 0.00 0.00 0.00 79 1006.8
20260905221910 77 328 0.0 0.0 0.00 0.00 0.00 81 1007.0
20260905221816 77 232 0.0 1.0 0.00 0.00 0.00 82 1006.9
20260905221407 77 232 0.0 1.0 0.00 0.00 0.00 82 1006.9
20260905220902 77 0 0.0 1.0 0.00 0.00 0.00 80 1006.9
20260905220805 78 217 0.0 0.0 0.00 0.00 0.00 80 1006.9
20260905220358 78 217 0.0 0.0 0.00 0.00 0.00 80 1006.9
20260905215857 78 235 1.0 1.0 0.00 0.00 0.00 79 1006.8
20260905215804 78 219 1.0 2.0 0.00 0.00 0.00 78 1007.1
20260905215353 78 219 1.0 2.0 0.00 0.00 0.00 78 1007.1
20260905214849 78 269 0.0 1.0 0.00 0.00 0.00 81 1007.0
20260905214344 78 287 0.0 1.0 0.00 0.00 0.00 78 1006.9
20260905213839 78 257 0.0 1.0 0.00 0.00 0.00 77 1006.8
20260905213742 78 19 0.0 1.0 0.00 0.00 0.00 76 1006.9
20260905213335 78 19 0.0 1.0 0.00 0.00 0.00 76 1006.9
20260905213241 78 0 1.0 2.0 0.00 0.00 0.00 76 1007.3
20260905212830 78 0 1.0 2.0 0.00 0.00 0.00 76 1007.3
20260905212330 78 265 0.0 3.0 0.00 0.00 0.00 76 1006.9
20260905212236 79 312 0.0 1.0 0.00 0.00 0.00 75 1006.9
20260905211824 79 312 0.0 1.0 0.00 0.00 0.00 75 1006.9
20260905211320 78 261 1.0 2.0 0.00 0.00 0.00 75 1007.0
20260905210817 78 304 1.0 2.0 0.00 0.00 0.00 76 1006.8
20260905210724 79 2 1.0 4.0 0.00 0.00 0.00 75 1006.7
20260905210316 79 2 1.0 4.0 0.00 0.00 0.00 75 1006.7
20260905205815 79 6 0.0 1.0 0.00 0.00 0.00 75 1006.7
20260905205310 80 278 2.0 3.0 0.00 0.00 0.00 73 1006.8
20260905205218 81 94 0.0 3.0 0.00 0.00 0.00 71 1006.7
20260905204809 81 94 0.0 3.0 0.00 0.00 0.00 71 1006.7
20260905204712 82 336 1.0 5.0 0.00 0.00 0.00 68 1006.2
20260905204305 82 336 1.0 5.0 0.00 0.00 0.00 68 1006.2
20260905203804 82 352 2.0 4.0 0.00 0.00 0.00 66 1006.4
20260905203300 82 328 3.0 4.0 0.00 0.00 0.00 67 1006.5
20260905203026 80 188 0.0 2.0 0.00 0.00 0.00 69 1006.7
20260905202755 81 307 0.0 3.0 0.00 0.00 0.00 68 1006.5
20260905202250 81 285 3.0 3.0 0.00 0.00 0.00 67 1006.6
20260905201746 82 242 0.0 4.0 0.00 0.00 0.00 69 1006.4
20260905201241 82 318 1.0 5.0 0.00 0.00 0.00 67 1006.5
20260905200736 80 188 0.0 2.0 0.00 0.00 0.00 69 1006.7
20260905200652 78 274 0.0 2.0 0.00 0.00 0.00 73 1006.7
20260905200232 78 274 0.0 2.0 0.00 0.00 0.00 73 1006.7
20260905195729 80 291 3.0 5.0 0.00 0.00 0.00 71 1006.6
20260905195224 80 12 1.0 4.0 0.00 0.00 0.00 71 1006.7
20260905194720 79 338 1.0 2.0 0.00 0.00 0.00 72 1006.6
20260905194631 79 126 0.0 2.0 0.00 0.00 0.00 75 1006.8
20260905194219 79 126 0.0 2.0 0.00 0.00 0.00 75 1006.8
20260905193713 79 294 1.0 2.0 0.00 0.00 0.00 75 1006.6
20260905193209 79 1 1.0 3.0 0.00 0.00 0.00 74 1006.8
20260905192704 79 312 3.0 4.0 0.00 0.00 0.00 74 1006.6
20260905192201 79 260 1.0 3.0 0.00 0.00 0.00 75 1006.6
20260905191700 79 333 2.0 5.0 0.00 0.00 0.00 73 1006.8
20260905191158 80 303 3.0 5.0 0.00 0.00 0.00 75 1006.5
20260905191118 79 319 3.0 4.0 0.00 0.00 0.00 76 1006.5
20260905190657 79 319 3.0 4.0 0.00 0.00 0.00 76 1006.5
20260905190156 78 283 2.0 3.0 0.00 0.00 0.00 79 1006.5
20260905185655 78 264 2.0 2.0 0.00 0.00 0.00 80 1006.3
20260905185150 78 197 0.0 3.0 0.00 0.00 0.00 80 1006.2
20260905184649 77 247 0.0 2.0 0.00 0.00 0.00 80 1006.1
20260905184148 77 298 1.0 1.0 0.00 0.00 0.00 82 1006.2
20260905183642 77 108 1.0 1.0 0.00 0.00 0.00 82 1006.4
20260905183137 78 76 2.0 2.0 0.00 0.00 0.00 84 1006.6
20260905182636 78 258 0.0 2.0 0.00 0.00 0.00 83 1007.1
20260905182540 78 122 0.0 3.0 0.00 0.00 0.00 83 1007.2
20260905182131 78 122 0.0 3.0 0.00 0.00 0.00 83 1007.2
20260905181626 77 335 0.0 1.0 0.00 0.00 0.00 82 1007.4
20260905181125 78 55 0.0 1.0 0.00 0.00 0.00 81 1007.5
20260905180620 78 257 0.0 1.0 0.00 0.00 0.00 82 1007.9
20260905180116 78 269 2.0 2.0 0.00 0.00 0.00 82 1008.1
20260905175615 78 279 0.0 2.0 0.00 0.00 0.00 85 1008.2
20260905175110 78 249 1.0 2.0 0.00 0.00 0.00 83 1008.4
20260905175016 79 290 1.0 3.0 0.00 0.00 0.00 81 1008.4
20260905174605 79 290 1.0 3.0 0.00 0.00 0.00 81 1008.4
20260905174511 79 266 0.0 1.0 0.00 0.00 0.00 81 1008.4
20260905174101 79 266 0.0 1.0 0.00 0.00 0.00 81 1008.4
20260905173557 78 284 1.0 2.0 0.00 0.00 0.00 81 1008.5
20260905173052 78 275 0.0 1.0 0.00 0.00 0.00 80 1008.3
20260905172551 78 317 0.0 2.0 0.00 0.00 0.00 79 1008.4
20260905172454 79 48 1.0 3.0 0.00 0.00 0.00 78 1008.7
20260905172046 79 48 1.0 3.0 0.00 0.00 0.00 78 1008.7
20260905171543 79 289 2.0 2.0 0.00 0.00 0.00 81 1008.4
20260905171448 79 297 0.0 1.0 0.00 0.00 0.00 79 1008.3
20260905171038 79 297 0.0 1.0 0.00 0.00 0.00 79 1008.3
20260905170535 80 317 1.0 4.0 0.00 0.00 0.00 77 1008.3
20260905170030 79 247 1.0 3.0 0.00 0.00 0.00 77 1008.2
20260905165525 79 256 0.0 2.0 0.00 0.00 0.00 77 1008.4
20260905165020 80 269 1.0 3.0 0.00 0.00 0.00 78 1008.6
20260905164514 79 344 2.0 3.0 0.00 0.00 0.00 78 1008.4
20260905164009 80 274 3.0 4.0 0.00 0.00 0.00 77 1008.4
20260905163915 80 267 2.0 4.0 0.00 0.00 0.00 77 1008.5
20260905163505 80 267 2.0 4.0 0.00 0.00 0.00 77 1008.5
20260905163409 80 272 4.0 5.0 0.00 0.00 0.00 78 1008.1
20260905163001 80 272 4.0 5.0 0.00 0.00 0.00 78 1008.1
20260905162904 81 294 3.0 5.0 0.00 0.00 0.00 78 1008.0
20260905162456 81 294 3.0 5.0 0.00 0.00 0.00 78 1008.0
20260905161951 80 322 0.0 4.0 0.00 0.00 0.00 81 1008.1
20260905161858 79 313 2.0 3.0 0.00 0.00 0.00 81 1008.1
20260905161450 79 313 2.0 3.0 0.00 0.00 0.00 81 1008.1
20260905161353 79 329 0.0 2.0 0.00 0.00 0.00 82 1008.2
20260905160948 79 329 0.0 2.0 0.00 0.00 0.00 82 1008.2
20260905160852 79 290 2.0 4.0 0.00 0.00 0.00 81 1008.1
20260905160442 79 290 2.0 4.0 0.00 0.00 0.00 81 1008.1
20260905155942 79 308 3.0 5.0 0.00 0.00 0.00 82 1008.2
20260905155437 79 305 1.0 3.0 0.00 0.00 0.00 83 1008.3
20260905155341 79 257 1.0 3.0 0.00 0.00 0.00 83 1008.3
20260905154936 79 257 1.0 3.0 0.00 0.00 0.00 83 1008.3
20260905154840 79 313 0.0 4.0 0.00 0.00 0.00 83 1008.1
20260905154431 79 313 0.0 4.0 0.00 0.00 0.00 83 1008.1
20260905154335 79 336 4.0 5.0 0.00 0.00 0.00 84 1008.3
20260905153926 79 336 4.0 5.0 0.00 0.00 0.00 84 1008.3
20260905153423 80 331 2.0 4.0 0.00 0.00 0.00 83 1008.3
20260905152922 80 311 1.0 6.0 0.00 0.00 0.00 83 1008.3
20260905152421 80 81 0.0 5.0 0.00 0.00 0.00 83 1008.4
20260905152323 80 44 0.0 3.0 0.00 0.00 0.00 83 1008.2
20260905151917 80 44 0.0 3.0 0.00 0.00 0.00 83 1008.2
20260905151413 80 301 1.0 3.0 0.00 0.00 0.00 84 1008.5
20260905150912 79 333 2.0 3.0 0.00 0.00 0.00 84 1008.5
20260905150407 80 287 3.0 4.0 0.00 0.00 0.00 83 1008.6
20260905145904 79 290 2.0 3.0 0.00 0.00 0.00 84 1008.4
20260905145358 79 297 3.0 3.0 0.00 0.00 0.00 84 1008.3
20260905145306 80 346 2.0 5.0 0.00 0.00 0.00 82 1008.3
20260905144858 80 346 2.0 5.0 0.00 0.00 0.00 82 1008.3
20260905144804 80 269 3.0 4.0 0.00 0.00 0.00 82 1008.4
20260905144353 80 269 3.0 4.0 0.00 0.00 0.00 82 1008.4
20260905143852 80 330 3.0 4.0 0.00 0.00 0.00 82 1008.3
20260905143346 79 329 0.0 3.0 0.00 0.00 0.00 84 1008.0
20260905142846 79 345 1.0 5.0 0.00 0.00 0.00 82 1008.1
20260905142344 80 9 2.0 2.0 0.00 0.00 0.00 83 1008.0
20260905141841 79 296 0.0 4.0 0.00 0.00 0.00 84 1007.8
20260905141746 80 319 3.0 3.0 0.00 0.00 0.00 84 1007.9
20260905141336 80 319 3.0 3.0 0.00 0.00 0.00 84 1007.9
20260905140832 80 291 2.0 4.0 0.00 0.00 0.00 82 1007.9
20260905140332 79 50 2.0 4.0 0.00 0.00 0.00 82 1007.8
20260905135830 79 312 0.0 2.0 0.00 0.00 0.00 82 1007.7
20260905135326 78 314 0.0 4.0 0.00 0.00 0.00 82 1007.7
20260905135229 78 328 2.0 3.0 0.00 0.00 0.00 83 1007.8
20260905134821 78 328 2.0 3.0 0.00 0.00 0.00 83 1007.8
20260905134314 78 1 2.0 3.0 0.00 0.00 0.00 84 1007.8
20260905133809 78 336 2.0 3.0 0.00 0.00 0.00 85 1007.7
20260905133305 78 344 2.0 3.0 0.00 0.00 0.00 85 1008.0
20260905132803 78 242 0.0 2.0 0.00 0.00 0.00 85 1007.8
20260905132259 77 287 0.0 2.0 0.00 0.00 0.00 85 1007.9
20260905131754 77 287 0.0 4.0 0.00 0.00 0.00 86 1007.8
20260905131249 77 304 1.0 2.0 0.00 0.00 0.00 86 1007.9
20260905130744 77 311 0.0 3.0 0.00 0.00 0.00 86 1007.7
20260905130243 77 40 0.0 2.0 0.00 0.00 0.00 86 1007.6
20260905130149 77 72 3.0 4.0 0.00 0.00 0.00 85 1007.9
20260905125738 77 72 3.0 4.0 0.00 0.00 0.00 85 1007.9
20260905125233 77 320 2.0 4.0 0.00 0.00 0.00 86 1007.7
20260905125138 77 251 1.0 3.0 0.00 0.00 0.00 86 1007.9
20260905124730 77 251 1.0 3.0 0.00 0.00 0.00 86 1007.9
20260905124226 77 284 2.0 3.0 0.00 0.00 0.00 86 1007.8
20260905123720 76 334 3.0 3.0 0.00 0.00 0.00 86 1007.7
20260905123218 76 336 0.0 3.0 0.00 0.00 0.00 87 1007.6
20260905123126 76 309 2.0 3.0 0.00 0.00 0.00 88 1007.8
20260905122717 76 309 2.0 3.0 0.00 0.00 0.00 88 1007.8
20260905122211 76 21 1.0 2.0 0.00 0.00 0.00 88 1007.8
20260905122110 75 353 0.0 3.0 0.00 0.00 0.00 89 1007.8
20260905121706 75 353 0.0 3.0 0.00 0.00 0.00 89 1007.8
20260905121203 75 38 0.0 2.0 0.00 0.00 0.00 90 1007.6
20260905120701 75 286 1.0 2.0 0.00 0.00 0.00 90 1007.6
20260905120156 75 337 0.0 2.0 0.00 0.00 0.00 89 1007.7
20260905115656 75 322 0.0 2.0 0.00 0.00 0.00 91 1007.7
20260905115151 75 335 0.0 2.0 0.00 0.00 0.00 91 1007.8
20260905114651 75 313 1.0 2.0 0.00 0.00 0.00 91 1007.6
20260905114556 74 233 0.0 1.0 0.00 0.00 0.00 92 1007.4
20260905114149 74 233 0.0 1.0 0.00 0.00 0.00 92 1007.4
20260905113649 74 326 2.0 2.0 0.00 0.00 0.00 93 1007.3
20260905113555 73 312 1.0 2.0 0.00 0.00 0.00 94 1007.3
20260905113145 73 312 1.0 2.0 0.00 0.00 0.00 94 1007.3
20260905112639 73 5 0.0 2.0 0.00 0.00 0.00 94 1007.2
20260905112135 73 335 0.0 1.0 0.00 0.00 0.00 95 1007.2
20260905112044 72 345 0.0 2.0 0.00 0.00 0.00 95 1007.4
20260905111635 72 345 0.0 2.0 0.00 0.00 0.00 95 1007.4
20260905111134 72 331 1.0 2.0 0.00 0.00 0.00 96 1007.0
20260905110633 72 239 0.0 1.0 0.00 0.00 0.00 96 1007.1
20260905110128 72 334 0.0 1.0 0.00 0.00 0.00 96 1007.0
20260905105623 72 229 0.0 1.0 0.00 0.00 0.00 96 1006.9
20260905105122 72 327 0.0 2.0 0.00 0.00 0.00 96 1006.8
20260905104618 72 18 0.0 2.0 0.00 0.00 0.00 96 1007.0
20260905104113 71 296 0.0 2.0 0.00 0.00 0.00 96 1007.1
20260905103609 72 212 1.0 2.0 0.00 0.00 0.00 96 1006.9